This is the latest recevied weather packets stored in our database for station/object KP4CRN. If no packets are shown the sender has not sent any weather packets the latest 10 day(s).
| Time | Temp. | Humidity | Pressure | Rain* | Wind** | Luminosity | Snow |
|---|---|---|---|---|---|---|---|
| 1777893980 | 26.67° C | 87% | 1017.4 hPa | 0 mm | - | 79 W/m² | - |
| 1777893677 | 26.67° C | 86% | 1017.3 hPa | 0 mm | - | 155 W/m² | - |
| 1777893373 | 26.67° C | 88% | 1017.4 hPa | 0 mm | - | 143 W/m² | - |
| 1777893069 | 26.67° C | 88% | 1017.3 hPa | 0 mm | - | 128 W/m² | - |
| 1777892767 | 26.11° C | 88% | 1017.2 hPa | 0 mm | - | 117 W/m² | - |
| 1777892463 | 26.11° C | 89% | 1017.4 hPa | 0 mm | - | 109 W/m² | - |
| 1777892158 | 26.11° C | 89% | 1017.3 hPa | 0 mm | - | 96 W/m² | - |
| 1777891855 | 26.11° C | 89% | 1017.3 hPa | 0 mm | - | 85 W/m² | - |
| 1777891552 | 25.56° C | 90% | 1017.4 hPa | 0 mm | - | 74 W/m² | - |
| 1777891249 | 25.56° C | 91% | 1017.2 hPa | 0 mm | - | 61 W/m² | - |
| 1777890948 | 25° C | 92% | 1016.9 hPa | 0 mm | - | 50 W/m² | - |
| 1777890643 | 25° C | 93% | 1017 hPa | 0 mm | - | 41 W/m² | - |
| 1777890339 | 24.44° C | 93% | 1017 hPa | 0 mm | - | 31 W/m² | - |
| 1777890035 | 24.44° C | 93% | 1017.2 hPa | 0 mm | - | 23 W/m² | - |
| 1777889733 | 25° C | 93% | 1017.3 hPa | 0 mm | - | 17 W/m² | - |
| 1777889431 | 24.44° C | 93% | 1017 hPa | 0 mm | - | 12 W/m² | - |
| 1777889128 | 24.44° C | 94% | 1016.9 hPa | 0 mm | - | 8 W/m² | - |
| 1777888826 | 24.44° C | 95% | 1017.1 hPa | 0 mm | - | 5 W/m² | - |
| 1777888522 | 24.44° C | 95% | 1017 hPa | 0 mm | - | 2 W/m² | - |
| 1777888218 | 24.44° C | 95% | 1016.9 hPa | 0 mm | - | 1 W/m² | - |
| 1777887915 | 24.44° C | 94% | 1016.9 hPa | 0 mm | - | 0 W/m² | - |
| 1777887612 | 24.44° C | 94% | 1016.7 hPa | 0 mm | - | 0 W/m² | - |
| 1777887308 | 24.44° C | 94% | 1016.6 hPa | 0 mm | - | 0 W/m² | - |
| 1777887004 | 24.44° C | 94% | 1016.7 hPa | 0 mm | - | 0 W/m² | - |
| 1777886700 | 24.44° C | 94% | 1016.7 hPa | 0 mm | - | 0 W/m² | - |
* Rain latest hour (hover to see other rain measurements)
** Current wind speed in m/s (hover to see current wind gust speed)